This is the latest recevied weather packets stored in our database for station/object 9W2CHF-3. If no packets are shown the sender has not sent any weather packets the latest 10 day(s).
| Time | Temp. | Humidity | Pressure | Rain* | Wind** | Luminosity | Snow |
|---|---|---|---|---|---|---|---|
| 1777576008 | 30.56° C | 95% | 1010.1 hPa | - | - | - | - |
| 1777574807 | 30° C | 98% | 1010.4 hPa | - | - | - | - |
| 1777573613 | 30.56° C | 96% | 1010.6 hPa | - | - | - | - |
| 1777572413 | 30.56° C | 93% | 1010.9 hPa | - | - | - | - |
| 1777571213 | 31.11° C | 90% | 1011.2 hPa | - | - | - | - |
| 1777570013 | 31.11° C | 88% | 1011.2 hPa | - | - | - | - |
| 1777568813 | 32.22° C | 87% | 1011.3 hPa | - | - | - | - |
| 1777567613 | 31.67° C | 86% | 1011.3 hPa | - | - | - | - |
| 1777566413 | 32.78° C | 82% | 1011.8 hPa | - | - | - | - |
| 1777565213 | 33.33° C | 81% | 1011.7 hPa | - | - | - | - |
| 1777564013 | 33.33° C | 78% | 1011.7 hPa | - | - | - | - |
| 1777562812 | 32.78° C | 79% | 1011.7 hPa | - | - | - | - |
| 1777561612 | 33.33° C | 79% | 1011.6 hPa | - | - | - | - |
| 1777560412 | 33.33° C | 81% | 1011.9 hPa | - | - | - | - |
| 1777559212 | 33.33° C | 81% | 1011.6 hPa | - | - | - | - |
| 1777558012 | 32.78° C | 79% | 1011.3 hPa | - | - | - | - |
| 1777556812 | 33.89° C | 76% | 1011.1 hPa | - | - | - | - |
| 1777555613 | 33.89° C | 76% | 1010.7 hPa | - | - | - | - |
| 1777554411 | 33.89° C | 75% | 1010.3 hPa | - | - | - | - |
| 1777553211 | 33.89° C | 73% | 1009.9 hPa | - | - | - | - |
| 1777552011 | 33.89° C | 74% | 1009.7 hPa | - | - | - | - |
| 1777550810 | 34.44° C | 72% | 1009.3 hPa | - | - | - | - |
| 1777549610 | 35° C | 67% | 1009.3 hPa | - | - | - | - |
| 1777548410 | 33.33° C | 71% | 1009.1 hPa | - | - | - | - |
| 1777547210 | 34.44° C | 72% | 1008.9 hPa | - | - | - | - |
* Rain since midnight (hover to see other rain measurements)
** Current wind speed in m/s (hover to see current wind gust speed)